SCP
0 0 0 0 0 0 0 0 0 0 0 0 0 0 0 0 0 0 0 0 0 0 0 0 0 0 0 0 0 0 0 0 0 0 0 0 0 0 0 0 0 0 0 0
0 0 0 0 0 0 0 0 0 0 0 0 0 0 0 0 0 0 0 0 0 0 0 0 0 0 0 0 0 0 0 0 0 0 0 0 0 0 0 0 0 0 0 0
0 0 0 0 0 0 0 0 0 0 0 0 0 0 0 0 0 0 0 0 0 0 0 0 0 0 0 0 0 0 0 0 0 0 0 0 0 0 0 0 0 0 0 0
0 0 0 0 0 0 0 0 0 0 0 0 0 0 0 0 0 0 0 0 0 0 0 0 0 0 0 0 0 0 0 0 0 0 0 0 0 0 0 0 0 0 0 0
0 0 0 0 0 0 0 0 0 0 0 0 0 0 0 0 0 0 0 0 0 0 0 0 0 0 0 0 0 0 0 0 0 0 0 0 0 0 0 0 0 0 0 0
0 0 0 0 0 0 0 0 0 0 0 0 0 0 0 0 0 0 0 0 0 0 0 0 0 0 0 0 0 0 0 0 0 0 0 0 0 0 0 0 0 0 0 0
0 0 0 0 0 0 0 0 0 0 0 0 0 0 0 0 0 0 0 0 0 0 0 0 0 0 0 0 0 0 0 0 0 0 0 0 0 0 0 0 0 0 0 0
0 0 0 0 0 0 0 0 0 0 0 0 0 0 0 0 0 0 0 0 0 0 0 0 0 0 0 0 0 0 0 0 0 0 0 0 0 0 0 0 0 0 0 0
0 0 0 0 0 0 0 0 0 0 0 0 0 0 0 0 0 0 0 0 0 0 0 0 0 0 0 0 0 0 0 0 0 0 0 0 0 0 0 0 0 0 0 0
0 0 0 0 0 0 0 0 0 0 0 0 0 0 0 0 0 0 0 0 0 0 0 0 0 0 0 0 0 0 0 0 0 0 0 0 0 0 0 0 0 0 0 0
0 0 0 0 0 0 0 0 0 0 0 0 0 -0 0 0 0 0 0 0 0 0 0 0 0 0 0 0 0 0 0 0 0 0 0 0 0 0 0 0 0 0 0 0
0 0 0 0 0 0 0 0 0 0 0 0 0 0 0 0 0 0 0 0 0 0 0 0 0 0 0 0 -0 -0 -0 0 0 0 0 0 0 -0 -0 0 0 0 0 0
0 0 0 0 0 0 0 0 0 0 0 0 0 0 0 0 0 0 0 0 0 0 0 0 0 0 0 0 0 -0 0 0 0 0 0 0 0 -0 -0 0 0 0 0 0
0 0 0 0 0 0 0 0 0 0 0 0 0 0 0 0 0 0 0 0 0 0 0 0 0 0 0 -0 0 -0 0 0 0 0 0 0 0 0 0 0 0 0 0 0
0 0 0 0 0 0 0 0 0 0 0 0 0 0 0 0 0 0 0 0 0 0 0 0 0 0 0 0 -0 0 0 0 0 0 0 0 0 0 0 0 0 0 0 0
0 0 0 0 0 0 0 0 0 0 0 0 0 0 0 0 0 0 0 0 0 0 0 0 0 0 0 0 0 0 0 0 0 0 0 0 0 0 0 0 0 0 0 0
0 0 0 0 0 0 0 0 0 0 0 0 0 0 0 0 0 0 0 0 0 0 0 0 -0 -0 0 -0 -0 -0 0 0 0 0 0 0 0 0 0 0 0 0 -0 0
-0 0 0 0 0 0 0 0 0 0 0 0 0 0 0 -0 -0 0 0 0 0 0 0 0 0 0 0 0 0 0 0 0 0 0 0 0 0 0 0 0 -0 -0 -0 0
0 0 0 0 0 0 0 0 0 0 0 0 0 0 0 0 0 0 0 0 -0 0 0 0 0 0 0 0 0 0 0 0 0 0 0 0 0 0 0 0 -0 -0 -0 -0
0 0 0 0 0 0 0 0 0 0 0 0 0 0 0 0 0 0 0 -0 0 0 0 0 0 0 0 0 0 0 0 0 0 0 0 0 0 0 0 0 0 0 0 -0
0 0 0 0 0 0 0 0 0 0 0 0 0 0 0 0 0 0 0 0 0 0 -0 0 0 0 0 0 0 0 0 0 0 0 0 0 0 0 0 0 0 0 0 0
0 0 0 0 0 0 0 0 0 0 0 0 0 0 0 0 0 0 0 0 0 0 -0 -0 -0 0 0 0 0 0 0 0 0 0 0 0 0 0 0 0 0 0 0 0
0 0 0 0 0 0 0 0 0 0 0 0 0 0 0 0 0 0 0 0 0 0 -0 -0 -0 0 0 0 0 0 0 0 0 0 0 0 0 0 0 0 0 0 0 0
0 0 0 0 0 0 0 0 0 0 0 0 0 0 0 0 0 0 0 0 0 0 -0 -0 -0 -0 0 0 0 0 0 0 0 0 0 0 0 0 0 0 0 0 0 0
0 0 0 0 0 0 0 0 0 0 0 0 0 0 0 0 0 0 0 0 0 0 -0 -0 0 0 0 0 0 0 0 0 0 0 0 0 0 0 0 0 0 0 0 0
0 0 0 0 0 0 0 0 0 0 0 0 0 0 0 0 0 0 0 0 0 0 0 0 0 0 0 0 0 0 0 0 0 0 0 0 0 0 0 0 0 0 0 0
0 0 0 0 0 0 0 0 0 0 0 0 0 0 0 0 0 0 0 0 0 0 0 0 0 0 0 0 0 0 0 0 0 0 0 0 0 0 0 0 0 0 0 0
Wind_Speed_500mb
1 4 6 15 20 25 28 23 21 33 43 37 34 34 42 40 46 47 46 47 51 53 53 54 45 47 46 44 43 41 41 41 44 43 46 43 40 38 39 41 46 54 57 53
2 4 8 21 28 27 30 32 40 39 38 30 30 36 42 44 48 48 49 54 56 57 59 58 59 60 60 59 57 54 52 52 49 48 48 49 47 46 47 51 50 53 55 58
6 10 8 21 38 39 34 27 24 27 22 21 27 31 40 43 50 52 54 56 58 63 66 68 68 67 66 66 65 63 61 62 61 55 52 51 50 49 53 57 58 52 55 56
9 13 14 6 8 8 23 16 21 25 23 21 23 32 41 46 52 54 53 60 68 70 72 73 73 70 69 69 69 69 68 66 67 61 55 54 52 51 57 63 65 60 53 53
10 20 9 20 20 16 23 20 18 16 11 15 26 42 59 47 38 50 59 67 72 73 75 76 77 76 75 73 66 63 59 58 53 49 52 53 54 52 66 65 62 63 55 51
10 11 14 17 22 9 7 19 20 4 12 25 36 25 31 55 58 61 61 64 69 72 74 73 73 72 74 73 71 69 62 55 48 45 46 46 52 58 61 62 65 62 60 52
18 14 9 16 20 21 11 5 5 15 26 30 27 33 57 60 59 57 61 63 64 66 67 67 66 68 72 72 71 65 61 56 55 60 59 59 59 62 63 60 60 59 55 50
17 16 19 35 26 14 8 8 18 22 28 33 37 45 51 55 60 60 60 61 61 64 64 64 64 65 69 72 68 62 58 61 63 58 60 64 68 68 63 60 54 54 48 46
18 10 14 41 13 4 6 14 16 25 27 32 42 48 50 52 56 59 62 65 63 60 66 65 66 65 69 68 68 63 53 64 58 62 63 64 65 65 64 57 53 52 50 48
12 18 19 24 15 11 8 16 19 21 24 32 40 44 46 50 55 59 59 65 62 60 61 69 65 61 62 61 58 59 67 61 62 60 52 53 57 59 57 50 45 45 47 43
15 13 14 22 26 14 12 15 15 20 25 29 34 39 42 49 54 56 60 61 62 60 62 75 68 63 56 49 48 50 46 53 49 44 37 32 37 35 32 33 36 41 43 40
13 20 20 12 12 10 14 11 15 19 25 24 26 33 39 47 49 52 60 60 57 56 66 70 58 53 52 43 39 42 45 44 39 29 37 36 34 33 33 36 36 40 42 42
29 16 18 10 10 13 12 10 13 15 16 23 28 32 37 45 47 53 53 55 55 59 61 56 51 48 45 44 40 37 34 34 29 31 35 32 31 30 27 31 30 31 34 33
28 22 19 19 14 19 11 15 11 11 13 18 23 28 33 40 48 56 59 58 56 53 50 55 54 50 45 41 35 27 19 18 25 30 27 26 25 23 20 16 15 17 19 21
28 29 20 14 17 16 17 12 5 10 15 19 20 25 32 40 46 52 54 57 59 53 49 50 51 50 44 40 27 16 15 21 24 23 20 19 16 14 11 8 7 7 10 14
34 27 25 26 22 22 17 7 7 9 12 17 21 26 32 35 39 49 57 54 57 57 50 46 49 50 43 40 35 29 28 27 24 15 15 13 11 8 4 5 8 13 19 25
32 33 33 29 27 20 12 9 10 10 11 14 17 26 33 39 44 55 58 54 50 50 49 55 58 53 45 42 38 34 30 29 25 14 10 10 8 6 8 12 16 21 25 30
30 20 22 24 24 18 15 15 13 11 11 15 22 25 28 35 42 51 58 59 55 56 53 59 60 59 51 43 39 37 35 31 24 19 12 11 10 9 12 17 22 25 29 35
29 25 23 22 20 21 20 18 19 17 20 20 23 23 26 30 37 45 52 57 52 55 69 65 62 60 57 48 40 35 33 31 27 21 17 16 15 16 17 20 26 29 34 40
27 27 28 30 27 27 26 25 27 28 28 28 27 28 32 35 39 46 51 52 45 55 68 69 65 61 59 54 41 33 29 28 28 24 22 21 22 23 24 25 27 30 36 40
29 30 34 39 39 37 37 34 36 39 37 37 36 35 36 40 44 50 48 46 50 59 72 72 64 59 58 55 46 35 29 30 30 28 26 27 29 30 31 33 33 34 38 39
32 40 46 50 51 51 48 45 45 44 45 46 43 42 42 43 42 45 47 45 49 68 72 70 61 59 57 52 46 36 30 29 30 32 29 32 35 36 38 39 40 41 42 43
41 44 45 50 58 63 60 57 57 52 50 51 50 47 45 40 40 35 44 48 59 63 71 70 63 60 54 53 45 38 34 31 31 35 34 35 38 40 42 45 44 44 44 45
51 50 50 45 44 50 62 70 68 61 54 50 51 47 43 39 38 36 38 50 60 63 67 67 64 58 53 50 46 40 36 35 32 35 35 37 39 42 45 47 48 47 47 46
25 26 28 32 33 33 38 43 44 46 49 46 37 35 35 29 36 44 52 56 57 59 62 64 60 56 51 43 44 40 38 37 36 35 36 38 41 43 47 50 50 50 50 47
20 20 21 22 22 23 25 26 23 20 23 23 26 28 34 41 44 47 49 52 54 55 56 59 58 54 52 46 43 42 39 41 42 40 39 40 42 45 49 51 52 52 51 49
23 24 21 20 20 21 20 20 19 21 25 31 37 40 37 43 47 49 50 52 53 55 56 54 55 53 50 49 42 42 39 41 45 45 44 45 46 49 51 52 52 52 52 51
Wind_Direction_500mb
114 106 230 238 205 206 208 230 247 264 273 292 307 310 308 308 313 311 307 308 313 310 310 307 302 307 303 301 303 306 306 306 304 307 311 312 310 305 302 303 308 307 307 308
29 315 276 252 236 237 232 245 254 265 273 290 300 297 299 309 311 309 309 309 307 306 307 305 301 300 301 300 298 298 300 300 299 299 300 302 304 304 303 305 305 306 306 302
208 192 222 261 234 227 228 235 249 253 279 308 295 304 303 310 302 304 304 301 301 301 298 298 297 297 298 298 295 294 293 292 292 290 291 294 294 295 296 299 301 302 301 301
167 160 236 92 80 185 212 223 246 258 272 293 309 299 295 295 294 294 298 299 298 297 296 295 294 295 294 293 292 289 288 288 289 286 284 289 292 291 291 291 291 293 293 293
191 213 326 188 203 191 203 239 255 274 304 292 298 301 289 292 309 307 299 296 296 295 294 294 293 293 290 288 290 291 289 290 284 281 281 284 288 286 289 285 284 283 283 284
179 216 224 118 134 153 182 256 131 156 287 304 307 295 296 318 311 303 298 296 297 296 296 296 295 294 290 287 284 280 283 284 287 290 282 282 290 292 296 290 278 279 279 279
197 228 251 176 158 156 214 108 200 306 301 299 294 295 301 306 306 306 307 305 302 299 297 297 297 295 290 287 283 281 281 281 282 289 284 287 292 293 295 292 282 273 271 276
199 217 244 154 152 201 28 322 303 296 299 297 296 300 301 304 310 316 317 317 311 305 302 300 299 295 290 288 286 283 281 289 291 281 279 281 285 288 288 285 280 275 273 275
194 207 118 174 127 192 291 286 290 294 292 294 300 303 306 309 313 314 313 315 313 306 303 305 301 297 292 291 288 283 283 286 293 294 286 285 282 277 278 280 273 274 276 275
176 197 175 180 247 258 253 286 287 289 298 304 305 306 312 313 315 316 316 315 313 308 304 308 308 300 294 290 290 287 286 288 292 293 288 284 286 283 273 270 266 270 273 272
225 218 206 235 253 237 274 284 289 304 309 309 310 315 320 317 317 316 315 315 314 311 309 310 312 308 305 298 292 288 287 292 296 297 298 296 296 290 279 276 269 269 268 261
222 218 217 181 195 236 256 271 303 307 307 322 329 324 324 321 319 319 320 319 320 318 319 324 319 314 315 304 295 288 290 295 297 301 306 300 297 293 284 279 269 258 254 251
244 223 206 208 241 217 226 265 277 292 319 331 334 330 329 326 322 320 323 327 327 326 340 336 328 323 323 318 311 298 284 287 296 302 303 300 297 293 289 288 274 263 250 246
217 194 216 225 220 204 239 244 272 314 328 338 330 334 332 328 327 333 332 340 337 337 341 343 346 344 336 323 314 304 286 286 296 305 305 301 295 290 286 278 278 268 241 226
208 210 225 207 203 216 223 233 288 318 333 337 337 337 338 333 335 343 342 345 347 344 340 340 343 347 348 347 338 332 321 307 305 305 307 305 300 297 287 265 240 201 159 144
211 211 206 209 216 219 218 221 274 304 324 328 335 342 342 337 335 346 356 356 352 351 347 342 337 336 341 344 338 334 325 318 315 305 312 308 303 293 253 196 161 139 132 135
174 194 206 217 218 217 222 229 253 285 304 320 330 348 355 354 354 1 1 360 3 360 357 348 342 333 331 331 326 316 314 315 312 296 287 279 278 250 199 169 155 146 144 149
206 212 215 211 218 220 223 230 244 257 279 304 328 343 349 352 353 357 358 0 2 358 350 348 345 341 332 324 315 308 298 299 301 289 265 248 230 209 185 174 164 157 155 163
213 219 215 229 237 243 249 260 252 258 277 289 310 321 330 338 341 344 345 350 356 348 349 347 345 343 342 332 318 302 292 282 283 279 259 236 221 202 187 182 175 174 175 173
217 225 237 248 249 254 259 260 265 267 269 274 285 297 310 320 328 332 336 342 336 338 342 342 341 342 338 336 323 305 290 278 275 266 255 234 220 208 195 190 186 184 179 178
232 239 245 253 257 259 259 264 267 267 267 267 274 284 295 307 316 322 328 325 329 331 335 335 336 335 333 330 321 305 288 277 270 262 252 232 223 213 203 196 193 189 186 184
275 274 272 271 266 264 264 262 261 265 265 267 271 278 287 296 306 313 318 317 318 323 328 329 327 325 324 321 318 301 285 270 264 259 251 232 224 217 210 203 200 196 195 193
282 285 287 282 276 273 269 262 259 261 264 263 266 270 277 285 298 305 310 316 318 320 322 321 322 319 315 316 309 299 279 266 260 257 254 237 226 219 214 209 206 203 199 198
283 286 290 293 288 280 269 265 262 261 259 259 259 263 269 281 288 297 302 308 316 318 317 317 319 317 312 311 307 295 278 262 254 252 249 238 228 221 215 210 208 204 203 203
306 304 303 306 303 291 284 279 279 275 271 265 256 263 272 281 294 304 308 311 313 315 314 315 317 314 311 306 308 291 280 260 252 249 243 234 226 220 214 210 208 206 206 208
306 306 303 301 294 285 280 281 282 261 237 259 279 290 298 304 304 306 306 307 309 311 313 313 314 314 309 302 303 299 279 265 251 245 239 233 226 219 212 209 207 207 209 211
296 298 301 295 296 300 298 296 293 295 300 302 302 303 300 300 301 301 302 304 306 308 310 312 312 311 308 304 298 300 289 266 255 246 240 231 224 215 210 208 209 210 210 209
Wind_Speed_850mb
1 4 6 15 20 25 28 23 21 33 43 37 34 34 42 40 46 47 46 47 51 53 53 54 45 47 46 44 43 41 41 41 44 43 46 43 40 38 39 41 46 54 57 53
2 4 8 21 28 27 30 32 40 39 38 30 30 36 42 44 48 48 49 54 56 57 59 58 59 60 60 59 57 54 52 52 49 48 48 49 47 46 47 51 50 53 55 58
6 10 8 21 38 39 34 27 24 27 22 21 27 31 40 43 50 52 54 56 58 63 66 68 68 67 66 66 65 63 61 62 61 55 52 51 50 49 53 57 58 52 55 56
9 13 14 6 8 8 23 16 21 25 23 21 23 32 41 46 52 54 53 60 68 70 72 73 73 70 69 69 69 69 68 66 67 61 55 54 52 51 57 63 65 60 53 53
10 20 9 20 20 16 23 20 18 16 11 15 26 42 59 47 38 50 59 67 72 73 75 76 77 76 75 73 66 63 59 58 53 49 52 53 54 52 66 65 62 63 55 51
10 11 14 17 22 9 7 19 20 4 12 25 36 25 31 55 58 61 61 64 69 72 74 73 73 72 74 73 71 69 62 55 48 45 46 46 52 58 61 62 65 62 60 52
18 14 9 16 20 21 11 5 5 15 26 30 27 33 57 60 59 57 61 63 64 66 67 67 66 68 72 72 71 65 61 56 55 60 59 59 59 62 63 60 60 59 55 50
17 16 19 35 26 14 8 8 18 22 28 33 37 45 51 55 60 60 60 61 61 64 64 64 64 65 69 72 68 62 58 61 63 58 60 64 68 68 63 60 54 54 48 46
18 10 14 41 13 4 6 14 16 25 27 32 42 48 50 52 56 59 62 65 63 60 66 65 66 65 69 68 68 63 53 64 58 62 63 64 65 65 64 57 53 52 50 48
12 18 19 24 15 11 8 16 19 21 24 32 40 44 46 50 55 59 59 65 62 60 61 69 65 61 62 61 58 59 67 61 62 60 52 53 57 59 57 50 45 45 47 43
15 13 14 22 26 14 12 15 15 20 25 29 34 39 42 49 54 56 60 61 62 60 62 75 68 63 56 49 48 50 46 53 49 44 37 32 37 35 32 33 36 41 43 40
13 20 20 12 12 10 14 11 15 19 25 24 26 33 39 47 49 52 60 60 57 56 66 70 58 53 52 43 39 42 45 44 39 29 37 36 34 33 33 36 36 40 42 42
29 16 18 10 10 13 12 10 13 15 16 23 28 32 37 45 47 53 53 55 55 59 61 56 51 48 45 44 40 37 34 34 29 31 35 32 31 30 27 31 30 31 34 33
28 22 19 19 14 19 11 15 11 11 13 18 23 28 33 40 48 56 59 58 56 53 50 55 54 50 45 41 35 27 19 18 25 30 27 26 25 23 20 16 15 17 19 21
28 29 20 14 17 16 17 12 5 10 15 19 20 25 32 40 46 52 54 57 59 53 49 50 51 50 44 40 27 16 15 21 24 23 20 19 16 14 11 8 7 7 10 14
34 27 25 26 22 22 17 7 7 9 12 17 21 26 32 35 39 49 57 54 57 57 50 46 49 50 43 40 35 29 28 27 24 15 15 13 11 8 4 5 8 13 19 25
32 33 33 29 27 20 12 9 10 10 11 14 17 26 33 39 44 55 58 54 50 50 49 55 58 53 45 42 38 34 30 29 25 14 10 10 8 6 8 12 16 21 25 30
30 20 22 24 24 18 15 15 13 11 11 15 22 25 28 35 42 51 58 59 55 56 53 59 60 59 51 43 39 37 35 31 24 19 12 11 10 9 12 17 22 25 29 35
29 25 23 22 20 21 20 18 19 17 20 20 23 23 26 30 37 45 52 57 52 55 69 65 62 60 57 48 40 35 33 31 27 21 17 16 15 16 17 20 26 29 34 40
27 27 28 30 27 27 26 25 27 28 28 28 27 28 32 35 39 46 51 52 45 55 68 69 65 61 59 54 41 33 29 28 28 24 22 21 22 23 24 25 27 30 36 40
29 30 34 39 39 37 37 34 36 39 37 37 36 35 36 40 44 50 48 46 50 59 72 72 64 59 58 55 46 35 29 30 30 28 26 27 29 30 31 33 33 34 38 39
32 40 46 50 51 51 48 45 45 44 45 46 43 42 42 43 42 45 47 45 49 68 72 70 61 59 57 52 46 36 30 29 30 32 29 32 35 36 38 39 40 41 42 43
41 44 45 50 58 63 60 57 57 52 50 51 50 47 45 40 40 35 44 48 59 63 71 70 63 60 54 53 45 38 34 31 31 35 34 35 38 40 42 45 44 44 44 45
51 50 50 45 44 50 62 70 68 61 54 50 51 47 43 39 38 36 38 50 60 63 67 67 64 58 53 50 46 40 36 35 32 35 35 37 39 42 45 47 48 47 47 46
25 26 28 32 33 33 38 43 44 46 49 46 37 35 35 29 36 44 52 56 57 59 62 64 60 56 51 43 44 40 38 37 36 35 36 38 41 43 47 50 50 50 50 47
20 20 21 22 22 23 25 26 23 20 23 23 26 28 34 41 44 47 49 52 54 55 56 59 58 54 52 46 43 42 39 41 42 40 39 40 42 45 49 51 52 52 51 49
23 24 21 20 20 21 20 20 19 21 25 31 37 40 37 43 47 49 50 52 53 55 56 54 55 53 50 49 42 42 39 41 45 45 44 45 46 49 51 52 52 52 52 51
Wind_Direction_850mb
114 106 230 238 205 206 208 230 247 264 273 292 307 310 308 308 313 311 307 308 313 310 310 307 302 307 303 301 303 306 306 306 304 307 311 312 310 305 302 303 308 307 307 308
29 315 276 252 236 237 232 245 254 265 273 290 300 297 299 309 311 309 309 309 307 306 307 305 301 300 301 300 298 298 300 300 299 299 300 302 304 304 303 305 305 306 306 302
208 192 222 261 234 227 228 235 249 253 279 308 295 304 303 310 302 304 304 301 301 301 298 298 297 297 298 298 295 294 293 292 292 290 291 294 294 295 296 299 301 302 301 301
167 160 236 92 80 185 212 223 246 258 272 293 309 299 295 295 294 294 298 299 298 297 296 295 294 295 294 293 292 289 288 288 289 286 284 289 292 291 291 291 291 293 293 293
191 213 326 188 203 191 203 239 255 274 304 292 298 301 289 292 309 307 299 296 296 295 294 294 293 293 290 288 290 291 289 290 284 281 281 284 288 286 289 285 284 283 283 284
179 216 224 118 134 153 182 256 131 156 287 304 307 295 296 318 311 303 298 296 297 296 296 296 295 294 290 287 284 280 283 284 287 290 282 282 290 292 296 290 278 279 279 279
197 228 251 176 158 156 214 108 200 306 301 299 294 295 301 306 306 306 307 305 302 299 297 297 297 295 290 287 283 281 281 281 282 289 284 287 292 293 295 292 282 273 271 276
199 217 244 154 152 201 28 322 303 296 299 297 296 300 301 304 310 316 317 317 311 305 302 300 299 295 290 288 286 283 281 289 291 281 279 281 285 288 288 285 280 275 273 275
194 207 118 174 127 192 291 286 290 294 292 294 300 303 306 309 313 314 313 315 313 306 303 305 301 297 292 291 288 283 283 286 293 294 286 285 282 277 278 280 273 274 276 275
176 197 175 180 247 258 253 286 287 289 298 304 305 306 312 313 315 316 316 315 313 308 304 308 308 300 294 290 290 287 286 288 292 293 288 284 286 283 273 270 266 270 273 272
225 218 206 235 253 237 274 284 289 304 309 309 310 315 320 317 317 316 315 315 314 311 309 310 312 308 305 298 292 288 287 292 296 297 298 296 296 290 279 276 269 269 268 261
222 218 217 181 195 236 256 271 303 307 307 322 329 324 324 321 319 319 320 319 320 318 319 324 319 314 315 304 295 288 290 295 297 301 306 300 297 293 284 279 269 258 254 251
244 223 206 208 241 217 226 265 277 292 319 331 334 330 329 326 322 320 323 327 327 326 340 336 328 323 323 318 311 298 284 287 296 302 303 300 297 293 289 288 274 263 250 246
217 194 216 225 220 204 239 244 272 314 328 338 330 334 332 328 327 333 332 340 337 337 341 343 346 344 336 323 314 304 286 286 296 305 305 301 295 290 286 278 278 268 241 226
208 210 225 207 203 216 223 233 288 318 333 337 337 337 338 333 335 343 342 345 347 344 340 340 343 347 348 347 338 332 321 307 305 305 307 305 300 297 287 265 240 201 159 144
211 211 206 209 216 219 218 221 274 304 324 328 335 342 342 337 335 346 356 356 352 351 347 342 337 336 341 344 338 334 325 318 315 305 312 308 303 293 253 196 161 139 132 135
174 194 206 217 218 217 222 229 253 285 304 320 330 348 355 354 354 1 1 360 3 360 357 348 342 333 331 331 326 316 314 315 312 296 287 279 278 250 199 169 155 146 144 149
206 212 215 211 218 220 223 230 244 257 279 304 328 343 349 352 353 357 358 0 2 358 350 348 345 341 332 324 315 308 298 299 301 289 265 248 230 209 185 174 164 157 155 163
213 219 215 229 237 243 249 260 252 258 277 289 310 321 330 338 341 344 345 350 356 348 349 347 345 343 342 332 318 302 292 282 283 279 259 236 221 202 187 182 175 174 175 173
217 225 237 248 249 254 259 260 265 267 269 274 285 297 310 320 328 332 336 342 336 338 342 342 341 342 338 336 323 305 290 278 275 266 255 234 220 208 195 190 186 184 179 178
232 239 245 253 257 259 259 264 267 267 267 267 274 284 295 307 316 322 328 325 329 331 335 335 336 335 333 330 321 305 288 277 270 262 252 232 223 213 203 196 193 189 186 184
275 274 272 271 266 264 264 262 261 265 265 267 271 278 287 296 306 313 318 317 318 323 328 329 327 325 324 321 318 301 285 270 264 259 251 232 224 217 210 203 200 196 195 193
282 285 287 282 276 273 269 262 259 261 264 263 266 270 277 285 298 305 310 316 318 320 322 321 322 319 315 316 309 299 279 266 260 257 254 237 226 219 214 209 206 203 199 198
283 286 290 293 288 280 269 265 262 261 259 259 259 263 269 281 288 297 302 308 316 318 317 317 319 317 312 311 307 295 278 262 254 252 249 238 228 221 215 210 208 204 203 203
306 304 303 306 303 291 284 279 279 275 271 265 256 263 272 281 294 304 308 311 313 315 314 315 317 314 311 306 308 291 280 260 252 249 243 234 226 220 214 210 208 206 206 208
306 306 303 301 294 285 280 281 282 261 237 259 279 290 298 304 304 306 306 307 309 311 313 313 314 314 309 302 303 299 279 265 251 245 239 233 226 219 212 209 207 207 209 211
296 298 301 295 296 300 298 296 293 295 300 302 302 303 300 300 301 301 302 304 306 308 310 312 312 311 308 304 298 300 289 266 255 246 240 231 224 215 210 208 209 210 210 209